Regional Weather Roundup
Issued by NWS Wakefield, VA

Home | Current Version | Previous Version | Graphics & Text | Print | Product List | Glossary On
Versions: 1 2 3 4 5 6 7 8 9 10 11 12 13 14 15 16 17 18 19 20 21 22 23 24 25 26 27 28 29
000
ASUS41 KAKQ 250510
RWRAKQ

REGIONAL WEATHER ROUNDUP
NATIONAL WEATHER SERVICE WAKEFIELD VA
100 AM EDT SAT OCT 25 2014

Note: "fair" indicates few or no clouds below 12,000 feet with no
significant weather and/or obstructions to visibility. * = Denotes
station may not report precipitation (e.g., rain,snow,etc.),
thunder or fog.

VAZ042-051-052>054-056-250600-
NORTHERN VIRGINIA

CITY           SKY/WX    TMP DP  RH WIND       PRES   REMARKS
WASH NATIONAL  PTCLDY    55  39  54 N8        29.97R
DULLES         PTCLDY    52  36  54 NW6       29.97S
FORT BELVOIR   CLEAR     42  40  94 E1        29.97R
QUANTICO       CLEAR     48  43  82 NW7       29.98S
FREDERICKSBRG* CLEAR     42  42 100 CALM      29.97S
STAFFORD*      CLEAR     38  38 100 CALM      30.01S
WARRENTON      CLEAR     37  37 100 CALM      29.97S
CULPEPER*      CLEAR     37  37 100 CALM      29.98S
MANASSAS*      CLEAR     41  41 100 CALM      29.98R
LEESBURG*      CLEAR     48  41  76 CALM      29.98S
WINCHESTER     CLEAR     46  34  61 CALM      29.98S
FRONT ROYAL*   CLEAR     46  36  66 S6        29.98F
LURAY*         CLEAR     41  41 100 CALM      30.01R
$$

VAZ048-049-060>072-079>083-250600-
CENTRAL AND SOUTH CENTRAL VIRGINIA...AND NORTH CENTRAL NORTH CAROLINA

CITY           SKY/WX    TMP DP  RH WIND       PRES   REMARKS
RICHMOND       PTCLDY    47  43  86 CALM      29.96S
CHESTERFIELD*    N/A    N/A N/A N/A MISG        N/A
PETERSBURG*    CLEAR     39  38  97 CALM      29.97S
HANOVER        CLEAR     43  42  97 CALM      29.98F FOG
TAPPAHANNOCK*  CLEAR     42  38  87 CALM      29.97S
CHARLOTTSVILLE CLEAR     44  40  85 NW5       29.97S
ORANGE*        CLEAR     39  37  93 CALM      29.98S
LOUISA*        CLEAR     43  39  87 CALM      29.96S
FARMVILLE*     CLEAR     45  43  93 CALM      29.95S
CREWE*         CLEAR     43  41  93 CALM      29.96S
FORT PICKETT*  CLEAR     45  44  97 CALM      29.96F
LUNENBURG*     CLEAR     52  47  84 CALM      29.96F
SOUTH HILL*    CLEAR     46  46 100 CALM      30.01F
LAWRENCEVILLE* CLEAR     49  47  90 CALM      29.96F
ROANOKE RAPIDS CLEAR     43  43 100 CALM      29.97S
RALEIGH        PTCLDY    48  44  86 S3        29.98F
$$

VAZ088>098-250600-
SOUTHEAST VIRGINIA

CITY           SKY/WX    TMP DP  RH WIND       PRES   REMARKS
NORFOLK        CLEAR     50  44  80 SW5       29.95S
VIRGINIA BEACH FAIR      51  44  77 CALM      29.95R
NORFOLK NAVAL  CLEAR     54  47  77 CALM      29.97R
WEST POINT*    CLEAR     43  41  91 CALM      29.98S
NEWPORT NEWS   CLEAR     48  44  86 N3        29.96R FOG
LANGLEY AFB    CLEAR     47  47  99 NW3       29.96R
FORT EUSTIS    CLEAR     53  53 100 N2        29.94S
WILLIAMSBURG*  CLEAR     48  46  93 N3        29.97R
HR EXEC AP*    CLEAR     37  34  87 CALM      29.98S
FRANKLIN*      CLEAR     45  45 100 CALM      29.97S
WAKEFIELD      CLEAR     44  41  89 CALM      29.96S
$$

VAZ020-022-025-037-045-250600-
WEST CENTRAL AND SOUTHWEST VIRGINIA

CITY           SKY/WX    TMP DP  RH WIND       PRES   REMARKS
STAUNTON*      CLEAR     37  34  89 CALM      30.03R
HOT SPRINGS VA CLEAR     43  36  74 NW15      30.02F
LYNCHBURG      CLEAR     39  38  96 NW3       30.00S
DANVILLE       CLEAR     45  43  93 SW5       29.99F
SOUTH BOSTON*  NOT AVBL
MARTINSVILLE   CLEAR     38  38 100 CALM      30.03S
ROANOKE        CLEAR     50  35  56 CALM      30.05S
BLACKSBURG     CLEAR     41  39  93 CALM      30.06F
DUBLIN*        CLEAR     45  39  81 CALM      30.07S
MARION*        CLEAR     44  38  78 W10       30.09F
HILLSVILLE*    CLEAR     45  35  66 CALM      30.05F
RICHLANDS*     CLEAR     48  40  72 CALM      30.08F
WISE*          CLEAR     45  36  70 CALM      30.09F
ABINGDON*      CLEAR     41  38  89 CALM      30.08F
$$

MDZ021>025-VAZ099-100-250600-
SOUTHERN MARYLAND AND THE DELMARVA PENINSULA

CITY           SKY/WX    TMP DP  RH WIND       PRES   REMARKS
PATUXENT RIVER CLEAR     52  37  56 W9        29.95R
BAY BRIDGE APT   N/A     55  37  50 W7        29.94S
LEONARDTOWN    CLEAR     46  37  71 W5        29.97R
DOVER          CLEAR     54  40  59 W10       29.88S
GEORGETOWN     CLEAR     53  40  61 NW3       29.92S
EASTON         CLEAR     53  43  69 CALM      29.97S
CAMBRIDGE      CLEAR     48  43  81 CALM      29.93S
SALISBURY      CLEAR     56  40  55 W6        29.92S
OCEAN CITY     CLEAR     54  40  59 NW7       29.91S
WALLOPS ISLAND CLEAR     55  43  63 NW10      29.93S
ACCOMACK*      CLEAR     55  41  58 NW7       29.94S
$$

NCZ012>017-030>032-250600-
EASTERN NORTH CAROLINA

CITY           SKY/WX    TMP DP  RH WIND       PRES   REMARKS
ELIZABETH CITY CLEAR     51  44  77 W6        29.96S
AHOSKIE*       CLEAR     44  43  97 CALM      29.97F
EDENTON*       CLEAR     48  47  93 CALM      29.96S
CURRITUCK*     CLEAR     49  44  83 CALM      29.96F
KILL DEVIL HLS CLEAR     57  52  84 NW3       29.94F
MANTEO         CLEAR     51  50  95 CALM      29.96S
CAPE HATTERAS  CLEAR     59  53  80 NW5       29.96S
TARBORO*       PTCLDY    44  43  96 CALM      29.98S FOG
GOLDSBORO      CLEAR     48  48  98 CALM      29.96F
WASHINGTON     CLEAR     48  46  95 CALM      29.98S
GREENVILLE     LGT RAIN  46  46 100 CALM      29.99S
NEW BERN       CLEAR     50  47  89 CALM      29.99S
WILMINGTON     PTCLDY    51  49  92 CALM      29.99F
$$

VAZ048-250600-
ELSEWHERE

CITY           SKY/WX    TMP DP  RH WIND       PRES   REMARKS
HARRISBURG PA  PTCLDY    51  39  63 NW9       29.93S
BALTIMORE      PTCLDY    50  38  63 NW6       29.94S
ANNAPOLIS      CLEAR     54  37  52 W6        29.93S
ANDREWS AFB    CLEAR     55  39  55 NW9       29.95S
WILMINGTON DE  CLEAR     52  39  61 NW8       29.91S
PHILADELPHIA   PTCLDY    56  37  49 W7        29.90R
WILDWOOD NJ*   CLEAR     57  43  58 NW6       29.90S
ATLANTIC CITY  PTCLDY    52  40  63 W6        29.88R
HENDERSON NC   PTCLDY    48  44  86 CALM      29.98S
GREENSBORO     CLEAR     48  41  76 CALM      30.00R
ROCKY MOUNT    CLEAR     44  43  96 CALM      29.98S
FAYETTEVILLE   PTCLDY    50  47  89 W5        29.98F
CHARLOTTE      CLEAR     40  38  93 CALM      30.01F
$$

VAZ100-250600-
MARINE

STATION/POSITION TIME  TEMP    WIND        PRES    WAVE   SWELL
                       AIR SEA DIR/SP/G            HT/PER HT/PER
                 (UTC) (F)     (DEG/KT/KT) (MB)    (FT/S) (FT/S)
44066 TX TWR #4  0500   61 66  310/ 12/ 14 1009.6R   3/ 9   2/ 9
CAPE MAY NJ      0500   59 63  310/  7/ 14 1011.7R
LEWES DE         0500   56 61  290/  9/ 11 1012.3R
15NM E FENWICK I 0500   62 64  300/ 17/ 21 1011.7R   4/ 4   2/10
OCEAN-CITY-INLET 0500   57 63  330/ 11/ 14 1012.2R
WACHAPREAGUE VA  0500   55 60  280/  2/  3 1013.6S
THOMAS POINT MD  0500   56 62  300/ 11/ 13 1014.7R
GOOSES REEF MD   0500   59     330/ 14/ 16 1014.3S
COVE POINT MD    0500   57     330/  9/ 12 1013.8S
SOLOMONS ISLAND  0500      63                N/A
BISHOPS HEAD MD  0500   56 57  310/  8/  9 1013.2S
PINEY POINT MD   0500          340/ 16/ 17   N/A
POTOMAC MD       0500   61     340/ 14/ 17 1013.4F
CAMBRIDGE MD     0500   59 60  310/  8/ 11 1013.4S
LEWISETTA VA     0500   55 60  300/  6/  6 1014.0S
RAPPAHANNOCK LGT 0500          320/ 15/ 17 1014.4R
STINGRAY PT      0500   61     310/ 10/ 12 1014.7F
YORK RVR RNG VA  0500   58     360/  8/  9 1013.9R
YORKTOWN VA      0500   56 64  290/  4/  4 1014.1R
JAMESTOWN VA     0500   55     290/  4/  6   N/A
DOMINION TERM VA 0500   59     300/  7/  9 1014.1F
KIPTOPEKE VA     0500      65  360/  4/  5   N/A
CHES BAY BRIDGE  0500   61 64  260/  6/  7 1013.7R
CHESAPEAKE LGHT  0400   63     300/  9/ 10 1014.5F
WILLOUBY STN VA  0500   60     280/  7/  8 1012.8S
S CRANEY ISL VA  0500           CALM  /  1 1014.0S
CAPE HENRY BUOY  0500      67                N/A     2/ 7
1ST LANDING BUOY 0500   63     300/  8/ 10 1013.8S
CAPE CHARLES BUO 0500      66                N/A     2/10   2/10
64NM E OF VA BCH 0500   66 66  330/ 16/ 17 1013.0R   4/ 8   2/ 8
DUCK PIER NC     0500   59 66  290/  6/  7 1013.5R
44100 DUCK FRF   0500      67                N/A     3/ 9   2/11
44056 DUCK FRF   0500                        N/A     3/10
OREGON INLET NC  0500   58 64  280/  5/  6 1014.2S
HATTERAS NC      0500   64 65  320/  9/ 11 1014.7F
DIAMOND SHLS NC  0500   66     320/ 14/ 17 1014.6R   4/ 9   3/ 9
CAPE LOOKOUT NC  0400   64     320/  6/  8 1014.9S
$$



USA.gov is the U.S. government's official web portal to all federal, state and local government web resources and services.